RH
86 100 99 100 97 82 79 76 70 64 66 64 67 57 47 44 41 45 52 55 54 56 57 56 58 64 83 99 95 76 72 63 50 43 40 39 36 39 37 42 51 64 69
85 100 100 98 100 100 95 86 82 78 75 74 79 69 62 59 51 49 50 54 56 55 59 65 71 97 100 100 95 84 76 69 55 49 46 45 34 40 38 38 48 59 72
98 100 100 100 100 100 100 100 91 88 86 84 84 81 80 80 76 68 65 67 72 69 70 92 100 100 100 99 88 81 75 73 62 55 48 51 42 38 41 41 44 54 74
100 100 100 100 100 100 100 100 100 98 90 85 87 91 88 88 90 90 89 88 90 98 100 100 100 100 97 87 86 71 68 72 66 65 49 53 48 46 46 48 43 48 71
100 100 100 99 100 100 100 100 100 100 100 96 94 98 100 97 99 100 100 100 100 100 100 100 100 94 94 100 83 67 71 73 73 70 59 54 50 49 56 53 51 52 62
100 100 100 100 100 100 100 100 100 100 100 100 100 100 100 100 100 100 100 100 100 100 100 100 99 95 94 78 71 73 75 80 79 57 60 53 57 51 58 60 62 53 54
100 100 100 100 100 100 100 100 100 100 100 100 100 100 100 100 100 100 100 100 100 100 100 100 100 95 90 74 70 67 61 71 62 57 60 62 58 59 65 68 68 70 60
100 100 100 100 100 100 100 100 100 100 100 100 100 100 100 100 100 100 100 100 100 100 100 100 100 100 91 78 75 65 71 72 76 76 71 66 74 74 71 77 70 59 55
87 98 99 100 100 100 100 100 100 100 100 100 100 100 100 100 100 100 100 100 100 100 100 100 100 100 93 82 58 62 77 71 79 70 73 87 79 72 74 71 56 52 54
62 100 100 100 100 100 100 100 100 100 100 100 100 100 100 100 100 100 100 100 97 94 100 100 87 67 91 78 78 77 79 78 83 91 91 81 79 87 81 77 68 54 57
21 100 100 100 100 100 98 83 100 100 100 100 100 100 100 100 100 100 100 100 100 85 80 77 89 73 89 88 88 80 92 81 80 84 91 92 95 91 91 81 67 70 83
20 100 100 100 100 100 100 100 100 100 100 100 100 100 100 100 100 100 100 100 100 98 100 100 100 84 83 82 78 73 74 90 98 97 97 97 100 93 93 77 78 82 82
40 95 100 100 100 100 100 100 100 100 100 100 100 100 100 100 100 100 100 100 100 99 99 92 99 98 82 90 89 97 96 98 98 100 91 90 84 83 74 84 79 71 66
20 76 91 100 100 100 100 100 100 100 100 100 100 100 100 99 100 100 100 100 100 95 90 96 99 100 97 91 84 78 85 99 87 78 73 86 82 84 88 78 72 70 52
17 29 40 83 100 100 100 100 90 94 88 100 100 100 100 100 100 100 100 100 100 96 100 100 99 90 89 85 89 83 85 82 67 78 96 90 88 76 76 75 72 59 47
29 23 51 100 100 100 100 100 100 97 100 100 100 100 100 100 100 100 100 84 83 82 84 91 87 75 81 81 96 80 88 93 97 94 97 85 79 76 73 62 47 38 33
22 24 100 100 100 100 100 100 100 100 100 100 100 100 100 100 84 91 100 84 79 90 89 77 60 66 73 85 93 91 99 100 100 96 90 73 79 78 54 46 42 31 25
21 26 100 100 100 100 100 100 100 100 100 100 100 100 100 88 93 100 100 100 98 92 76 68 71 66 90 93 99 93 100 100 95 74 76 77 61 54 45 30 22 20 28
22 96 100 100 100 100 100 100 100 100 100 100 100 100 100 99 96 100 100 100 80 70 94 83 88 72 68 62 54 68 83 80 78 89 69 52 44 39 26 19 23 26 24
22 100 100 100 100 100 100 100 100 100 100 100 100 99 91 96 100 92 81 76 91 95 97 94 70 88 66 63 52 64 81 81 78 58 51 50 42 25 18 25 25 22 19
82 100 100 100 100 100 100 100 100 100 100 100 100 100 100 96 80 98 94 79 94 94 81 68 72 84 76 66 45 55 79 78 72 59 48 33 21 18 24 25 24 22 17
100 100 100 100 100 100 100 100 100 100 100 100 100 93 100 100 100 86 81 91 94 73 74 83 82 72 63 46 50 84 87 64 59 39 32 26 20 26 26 24 26 22 11
70 100 100 100 100 100 100 100 100 100 100 100 100 100 100 100 86 76 71 68 80 79 78 82 69 52 57 71 97 72 62 46 38 28 22 24 27 28 27 28 23 12 8
56 92 100 100 100 100 100 100 100 100 100 100 100 100 100 97 78 79 94 78 69 71 78 67 54 63 69 61 50 46 38 41 33 23 22 29 28 26 22 19 13 8 8
100 100 100 100 100 100 100 100 100 100 100 100 95 100 93 82 99 91 81 68 66 63 65 66 63 55 61 42 41 41 38 33 23 25 27 27 28 28 20 9 9 8 9
100 100 100 100 100 100 100 100 100 100 100 94 95 98 83 84 99 88 77 65 52 55 74 75 59 76 65 52 45 40 34 24 25 27 25 33 27 19 10 8 8 9 8
Wind_Speed
64 60 57 55 55 53 49 45 43 39 37 35 34 35 34 34 34 33 33 34 37 37 39 41 43 45 46 45 40 40 39 42 46 49 50 47 44 42 40 40 40 42 43
63 64 60 59 57 56 55 51 48 45 43 39 39 38 37 37 38 37 38 39 41 43 43 45 47 47 45 42 40 41 43 45 48 50 51 48 46 40 43 44 43 43 44
65 65 62 62 60 60 58 57 54 51 48 45 43 43 42 40 40 41 42 43 45 46 47 47 45 42 42 41 42 43 47 47 50 53 55 51 48 47 52 51 48 45 44
71 67 63 61 62 62 61 60 57 55 53 51 49 49 48 45 45 45 46 46 47 46 43 43 42 44 45 47 46 49 50 51 53 57 56 55 53 52 54 53 51 50 48
61 72 68 64 63 62 63 63 60 59 57 56 54 53 52 50 49 48 48 44 43 44 45 46 47 47 48 48 51 54 56 56 57 60 59 57 56 58 56 55 56 54 52
63 63 63 68 65 63 63 62 63 62 60 60 57 55 54 54 52 51 47 46 46 47 48 51 52 53 56 57 58 58 57 60 61 62 61 60 60 62 59 59 61 56 51
61 64 69 75 75 69 62 62 62 62 61 60 58 56 53 52 51 50 48 51 51 51 54 57 59 61 61 61 59 60 61 62 64 65 64 64 64 66 63 66 64 61 61
78 68 66 68 72 72 66 67 62 60 58 58 59 58 56 54 55 54 54 56 58 58 58 59 60 64 65 63 62 64 65 64 65 67 67 67 69 69 68 70 66 63 62
89 73 61 64 65 68 71 66 62 59 59 60 60 59 58 57 56 56 58 60 62 63 62 63 63 64 67 68 66 65 63 66 68 70 72 72 73 72 72 74 72 71 69
95 79 63 63 59 60 65 66 61 58 59 60 59 61 59 60 57 57 60 61 62 64 64 64 67 68 67 69 68 69 69 70 73 75 76 77 77 77 78 80 80 78 77
97 94 85 76 73 68 66 66 67 60 61 61 62 61 60 56 56 60 61 62 62 67 67 65 67 68 67 69 70 74 75 77 79 80 80 80 80 80 84 86 86 85 86
95 98 91 81 72 67 55 60 62 59 61 63 58 58 59 58 57 61 63 66 67 68 69 68 71 73 72 73 75 77 80 81 83 84 83 82 83 86 89 90 91 92 94
95 99 98 89 84 74 64 59 58 57 57 63 62 58 59 58 60 61 65 71 67 71 69 71 73 76 75 76 77 79 82 84 86 84 83 84 89 92 95 95 96 98 100
97 99 102 87 83 77 64 62 56 56 57 55 54 56 56 58 62 62 68 69 68 71 70 72 73 77 79 79 80 83 86 87 87 88 91 90 96 99 100 101 103 106 105
95 99 92 82 81 74 66 65 66 64 62 56 54 55 58 61 63 64 68 71 73 74 76 79 78 81 84 86 87 90 90 88 93 93 94 99 102 105 105 107 109 110 110
101 93 85 76 74 70 70 69 67 63 60 56 54 57 61 63 63 67 71 73 74 79 78 78 81 85 92 93 89 92 93 92 94 99 102 107 109 107 109 110 110 110 109
95 85 86 86 77 71 67 64 62 62 58 58 58 63 62 64 65 68 74 73 75 74 77 77 81 85 87 91 92 97 98 97 103 109 108 109 107 109 111 112 113 113 114
91 93 85 81 76 78 67 60 61 60 58 61 66 66 68 66 65 72 73 72 74 77 79 81 86 89 89 95 101 100 100 100 104 105 108 106 109 111 113 114 116 118 115
93 94 91 77 79 77 67 63 66 61 65 67 70 63 64 65 70 71 76 79 76 76 80 85 88 95 96 92 93 94 98 103 104 109 109 111 112 116 119 118 118 113 116
95 93 87 83 76 73 71 63 65 67 70 69 68 66 69 68 74 81 82 78 82 80 84 90 97 93 95 99 98 99 103 108 110 110 114 117 120 124 122 117 115 116 113
95 88 83 75 69 71 71 67 65 69 68 67 70 67 75 75 76 79 81 85 84 88 94 99 98 101 102 108 104 104 107 109 112 114 117 125 126 128 119 119 120 120 115
87 88 84 85 73 67 67 69 70 70 77 74 77 80 77 77 80 83 85 85 88 94 99 102 102 106 110 107 107 108 109 110 116 119 122 129 127 123 122 123 126 124 112
84 84 85 80 77 72 70 75 73 74 73 72 73 75 80 79 84 86 90 93 96 101 103 101 104 106 107 110 110 110 112 118 121 124 124 125 123 127 127 125 126 115 107
75 74 72 73 73 75 75 80 76 77 76 78 78 78 80 84 87 89 92 96 100 99 100 104 107 106 109 110 111 112 116 119 125 128 120 123 126 128 125 120 115 106 96
73 68 63 67 76 69 76 88 80 78 79 76 79 80 83 85 91 97 95 95 98 100 102 106 108 108 110 112 114 117 121 123 124 122 124 130 130 130 125 108 103 97 89
78 75 68 65 77 76 76 78 78 75 74 79 81 88 91 96 96 95 89 94 100 104 108 111 113 112 118 118 118 120 123 122 121 124 126 132 133 123 115 105 90 86 86
Wind_Direction
251 249 249 249 251 251 251 252 253 255 258 261 268 267 267 269 267 267 269 269 271 276 280 284 287 289 292 294 294 300 303 307 313 317 318 319 319 312 310 311 312 314 313
251 247 247 247 248 252 251 252 253 254 255 258 263 267 268 269 270 269 268 271 276 278 281 284 286 290 290 290 294 299 303 305 310 314 316 317 318 314 317 314 309 309 312
249 249 246 247 248 250 252 252 253 253 255 257 263 266 267 269 272 274 274 275 279 282 283 287 288 287 288 289 294 299 300 303 308 311 313 314 314 315 314 316 309 306 309
248 246 246 245 247 246 249 252 252 253 255 257 260 265 268 270 272 274 277 280 282 284 285 286 284 284 287 290 294 298 298 300 306 309 310 310 313 312 313 314 312 308 307
245 248 247 245 244 245 247 251 253 255 257 259 261 265 267 269 271 273 277 281 281 281 282 280 278 281 287 288 293 298 300 300 304 306 307 308 310 312 312 312 309 308 305
235 241 243 246 246 244 244 249 252 255 256 261 263 265 266 270 272 274 277 277 277 278 279 281 283 287 290 293 296 299 300 301 302 304 305 306 309 311 312 310 308 305 304
219 232 240 243 249 245 245 248 251 254 256 259 261 262 265 268 272 274 274 275 275 277 279 283 288 289 290 292 295 297 298 300 302 303 305 304 306 310 309 309 307 303 302
221 224 228 238 240 241 243 248 250 252 256 259 260 264 263 267 270 273 275 275 277 277 279 282 284 286 289 291 293 296 300 302 302 303 303 304 305 306 308 309 305 305 303
217 220 219 231 232 238 245 243 245 250 257 260 257 262 264 266 269 273 274 274 276 279 280 280 282 285 288 290 294 299 299 299 301 301 302 303 304 305 306 307 306 305 304
215 217 210 220 228 239 238 240 241 245 254 256 261 262 262 268 268 272 274 276 279 280 282 281 282 285 289 293 296 296 298 299 299 300 301 302 302 302 303 305 304 304 305
216 215 213 217 224 229 238 242 240 242 248 253 259 261 260 264 268 272 274 276 276 278 281 285 285 289 291 290 293 296 296 298 300 301 300 302 301 302 303 304 304 304 302
214 216 217 219 223 228 235 237 237 240 248 252 257 256 258 263 268 272 272 276 278 280 282 286 287 289 291 292 295 297 300 300 299 301 301 300 300 302 302 303 303 302 301
210 211 215 220 224 225 233 239 243 246 247 247 251 255 258 262 267 270 274 277 278 280 281 285 288 289 292 294 296 298 300 300 298 299 298 298 301 302 302 302 301 301 300
208 211 217 219 224 225 230 231 235 241 243 243 249 252 258 261 266 269 272 276 277 279 283 285 288 291 294 294 296 298 299 298 298 299 298 299 302 302 301 300 301 300 300
204 210 212 212 220 221 226 231 233 237 242 242 245 253 260 262 263 267 269 271 274 278 280 283 287 291 293 295 296 297 297 298 299 301 300 301 301 301 300 301 301 300 299
205 206 204 206 211 219 223 227 231 237 242 243 246 254 257 259 262 264 268 273 278 279 284 286 287 292 291 294 294 298 298 299 300 300 300 300 301 301 300 299 299 299 301
202 201 199 204 212 217 221 227 230 235 241 247 248 251 255 257 263 270 270 277 281 281 283 289 296 301 298 298 299 300 299 300 300 302 302 303 303 302 301 301 301 301 303
197 198 201 205 210 216 221 229 234 238 246 247 249 254 258 265 269 269 276 277 279 283 290 297 300 302 300 300 300 300 301 300 301 302 304 301 300 300 301 301 303 305 306
195 197 202 206 213 218 227 235 237 239 247 250 252 258 262 266 268 270 272 270 279 288 294 295 298 301 302 302 302 302 301 302 303 304 302 300 301 302 302 305 308 308 309
195 195 203 207 213 221 225 231 236 239 244 248 254 260 264 265 264 267 270 281 283 289 292 295 299 297 298 305 303 304 304 305 304 303 303 302 302 301 305 309 312 312 309
196 197 203 209 217 223 226 232 237 239 243 250 253 259 260 264 271 270 275 278 283 289 293 295 296 297 298 302 303 305 305 303 302 302 301 301 303 308 312 315 315 314 311
196 200 208 214 221 225 230 236 241 245 248 256 258 260 265 266 269 272 273 279 287 291 294 296 296 297 299 301 305 305 303 300 300 301 302 304 308 311 315 317 316 313 310
197 204 211 216 222 226 232 238 242 246 250 251 256 261 263 265 268 272 277 285 290 293 294 296 296 300 303 304 302 300 299 300 301 302 304 307 311 313 315 316 314 311 310
200 205 213 217 223 227 230 236 241 246 251 256 258 260 263 268 271 278 285 287 291 293 292 294 299 301 301 300 299 299 301 301 302 304 310 310 313 315 315 315 313 310 308
201 207 214 222 224 228 237 239 241 243 247 253 258 263 268 275 279 284 288 291 290 292 294 296 298 299 301 302 301 301 302 302 305 309 312 314 315 316 314 313 312 309 308
202 211 215 225 223 228 234 237 243 247 256 259 263 265 271 276 282 283 287 289 290 293 298 299 298 297 301 302 303 302 302 305 309 311 314 314 314 315 313 311 311 309 308